| time (UTC) | temp F | wind direction | speed MPH | gust MPH | rain 1hr in | rain 24hr in | rain mn in | humidity % | barometer mb |
| 20260505070110 | 47 | 315 | 2.0 | 9.0 | 0.00 | 0.00 | 0.00 | 70 | |
| 20260505065610 | 47 | 324 | 2.0 | 6.0 | 0.00 | 0.00 | 0.00 | 70 | |
| 20260505065110 | 47 | 326 | 3.0 | 7.0 | 0.00 | 0.00 | 0.00 | 70 | |
| 20260505064610 | 47 | 316 | 5.0 | 7.0 | 0.00 | 0.00 | 0.00 | 71 | |
| 20260505064110 | 47 | 286 | 5.0 | 10.0 | 0.00 | 0.00 | 0.00 | 71 | |
| 20260505063610 | 47 | 347 | 6.0 | 14.0 | 0.00 | 0.00 | 0.00 | 70 | |
| 20260505063110 | 47 | 322 | 4.0 | 9.0 | 0.00 | 0.00 | 0.00 | 70 | |
| 20260505062610 | 47 | 336 | 6.0 | 14.0 | 0.00 | 0.00 | 0.00 | 71 | |
| 20260505062110 | 47 | 319 | 14.0 | 14.0 | 0.00 | 0.00 | 0.00 | 71 | |
| 20260505061610 | 47 | 316 | 2.0 | 11.0 | 0.00 | 0.00 | 0.00 | 71 | |
| 20260505061110 | 47 | 319 | 4.0 | 8.0 | 0.00 | 0.00 | 0.00 | 71 | |
| 20260505060610 | 48 | 302 | 3.0 | 8.0 | 0.00 | 0.00 | 0.00 | 70 | |
| 20260505060110 | 48 | 338 | 4.0 | 7.0 | 0.00 | 0.00 | 0.00 | 70 | |
| 20260505055610 | 48 | 315 | 3.0 | 8.0 | 0.00 | 0.00 | 0.00 | 70 | |
| 20260505055110 | 48 | 338 | 4.0 | 13.0 | 0.00 | 0.00 | 0.00 | 69 | |
| 20260505054610 | 48 | 333 | 11.0 | 11.0 | 0.00 | 0.00 | 0.00 | 68 | |
| 20260505054110 | 48 | 315 | 9.0 | 12.0 | 0.00 | 0.00 | 0.00 | 66 | |
| 20260505053610 | 48 | 334 | 11.0 | 12.0 | 0.00 | 0.00 | 0.00 | 65 | |
| 20260505053110 | 49 | 333 | 6.0 | 9.0 | 0.00 | 0.00 | 0.00 | 64 | |
| 20260505052610 | 50 | 337 | 2.0 | 5.0 | 0.00 | 0.00 | 0.00 | 57 | |
| 20260505052110 | 50 | 299 | 3.0 | 7.0 | 0.00 | 0.00 | 0.00 | 53 | |
| 20260505051610 | 50 | 291 | 6.0 | 6.0 | 0.00 | 0.00 | 0.00 | 52 | |
| 20260505051110 | 50 | 333 | 2.0 | 6.0 | 0.00 | 0.00 | 0.00 | 53 | |
| 20260505050610 | 50 | 336 | 2.0 | 7.0 | 0.00 | 0.00 | 0.00 | 52 | |
| 20260505050110 | 50 | 298 | 5.0 | 7.0 | 0.00 | 0.00 | 0.00 | 52 | |
| 20260505041610 | 49 | 316 | 3.0 | 13.0 | 0.00 | 0.00 | 0.00 | 61 | |
| 20260505041110 | 49 | 338 | 8.0 | 10.0 | 0.00 | 0.00 | 0.00 | 61 | |
| 20260505040610 | 49 | 285 | 3.0 | 8.0 | 0.00 | 0.00 | 0.00 | 64 | |
| 20260505040110 | 49 | 333 | 4.0 | 11.0 | 0.00 | 0.00 | 0.00 | 64 | |
| 20260505035610 | 50 | 348 | 2.0 | 12.0 | 0.00 | 0.00 | 0.00 | 62 | |
| 20260505035110 | 50 | 326 | 3.0 | 11.0 | 0.00 | 0.00 | 0.00 | 62 | |
| 20260505034610 | 49 | 330 | 5.0 | 13.0 | 0.00 | 0.00 | 0.00 | 62 | |
| 20260505034110 | 49 | 11 | 4.0 | 10.0 | 0.00 | 0.00 | 0.00 | 64 | |
| 20260505033610 | 50 | 0 | 3.0 | 9.0 | 0.00 | 0.00 | 0.00 | 65 | |
| 20260505033110 | 50 | 327 | 4.0 | 8.0 | 0.00 | 0.00 | 0.00 | 64 | |
| 20260505032610 | 49 | 316 | 3.0 | 12.0 | 0.00 | 0.00 | 0.00 | 62 | |
| 20260505032110 | 49 | 340 | 6.0 | 10.0 | 0.00 | 0.00 | 0.00 | 64 | |
| 20260505031610 | 49 | 347 | 5.0 | 11.0 | 0.00 | 0.00 | 0.00 | 65 | |
| 20260505031110 | 50 | 312 | 0.0 | 9.0 | 0.00 | 0.00 | 0.00 | 67 | |
| 20260505030610 | 50 | 331 | 5.0 | 10.0 | 0.00 | 0.00 | 0.00 | 66 | |
| 20260505030110 | 50 | 295 | 1.0 | 8.0 | 0.00 | 0.00 | 0.00 | 62 | |
| 20260505025610 | 50 | 298 | 6.0 | 10.0 | 0.00 | 0.00 | 0.00 | 62 | |
| 20260505025110 | 50 | 305 | 3.0 | 14.0 | 0.00 | 0.00 | 0.00 | 67 | |
| 20260505024610 | 50 | 322 | 8.0 | 16.0 | 0.00 | 0.00 | 0.00 | 62 | |
| 20260505024110 | 50 | 291 | 5.0 | 14.0 | 0.00 | 0.00 | 0.00 | 61 | |
| 20260505023610 | 50 | 344 | 5.0 | 15.0 | 0.00 | 0.00 | 0.00 | 62 | |
| 20260505023110 | 50 | 340 | 9.0 | 11.0 | 0.00 | 0.00 | 0.00 | 64 | |
| 20260505022610 | 50 | 343 | 8.0 | 10.0 | 0.00 | 0.00 | 0.00 | 63 | |
| 20260505022110 | 51 | 1 | 5.0 | 9.0 | 0.00 | 0.00 | 0.00 | 61 | |
| 20260505021610 | 51 | 337 | 3.0 | 6.0 | 0.00 | 0.00 | 0.00 | 59 | |
| 20260505021110 | 51 | 309 | 0.0 | 6.0 | 0.00 | 0.00 | 0.00 | 58 | |
| 20260505020610 | 51 | 331 | 4.0 | 6.0 | 0.00 | 0.00 | 0.00 | 57 | |
| 20260505020110 | 51 | 315 | 0.0 | 7.0 | 0.00 | 0.00 | 0.00 | 59 | |
| 20260505015610 | 51 | 1 | 5.0 | 9.0 | 0.00 | 0.00 | 0.00 | 58 | |
| 20260505015111 | 52 | 344 | 2.0 | 7.0 | 0.00 | 0.00 | 0.00 | 57 | |
| 20260505014611 | 52 | 358 | 3.0 | 7.0 | 0.00 | 0.00 | 0.00 | 56 | |
| 20260505014111 | 52 | 354 | 0.0 | 6.0 | 0.00 | 0.00 | 0.00 | 55 | |
| 20260505013611 | 52 | 289 | 6.0 | 9.0 | 0.00 | 0.00 | 0.00 | 54 | |
| 20260505013111 | 52 | 322 | 7.0 | 11.0 | 0.00 | 0.00 | 0.00 | 54 | |
| 20260505012611 | 53 | 337 | 4.0 | 8.0 | 0.00 | 0.00 | 0.00 | 50 | |
| 20260505012111 | 53 | 299 | 8.0 | 12.0 | 0.00 | 0.00 | 0.00 | 49 | |
| 20260505011611 | 53 | 257 | 11.0 | 16.0 | 0.00 | 0.00 | 0.00 | 47 | |
| 20260505011111 | 53 | 293 | 12.0 | 16.0 | 0.00 | 0.00 | 0.00 | 48 | |
| 20260505010611 | 53 | 292 | 6.0 | 13.0 | 0.00 | 0.00 | 0.00 | 47 | |
| 20260505010111 | 53 | 316 | 7.0 | 22.0 | 0.00 | 0.00 | 0.00 | 48 | |
| 20260505005611 | 53 | 285 | 13.0 | 15.0 | 0.00 | 0.00 | 0.00 | 46 | |
| 20260505005111 | 53 | 298 | 8.0 | 12.0 | 0.00 | 0.00 | 0.00 | 46 | |
| 20260505004611 | 53 | 307 | 5.0 | 14.0 | 0.00 | 0.00 | 0.00 | 50 | |
| 20260505004111 | 53 | 291 | 7.0 | 8.0 | 0.00 | 0.00 | 0.00 | 50 | |
| 20260505003611 | 53 | 296 | 8.0 | 11.0 | 0.00 | 0.00 | 0.00 | 49 | |
| 20260505003111 | 53 | 289 | 5.0 | 8.0 | 0.00 | 0.00 | 0.00 | 48 | |
| 20260505002611 | 53 | 7 | 4.0 | 14.0 | 0.00 | 0.00 | 0.00 | 48 | |
| 20260505002111 | 53 | 262 | 8.0 | 18.0 | 0.00 | 0.00 | 0.00 | 48 | |
| 20260505001611 | 53 | 244 | 11.0 | 17.0 | 0.00 | 0.00 | 0.00 | 49 | |
| 20260505001111 | 53 | 282 | 10.0 | 15.0 | 0.00 | 0.00 | 0.00 | 49 | |
| 20260505000611 | 53 | 303 | 4.0 | 16.0 | 0.00 | 0.00 | 0.00 | 50 | |
| 20260505000111 | 53 | 307 | 5.0 | 17.0 | 0.00 | 0.00 | 0.00 | 50 | |
| 20260504235611 | 53 | 323 | 3.0 | 12.0 | 0.00 | 0.00 | 0.00 | 52 | |
| 20260504235111 | 53 | 268 | 11.0 | 12.0 | 0.00 | 0.00 | 0.00 | 51 | |
| 20260504234611 | 52 | 320 | 6.0 | 13.0 | 0.00 | 0.00 | 0.00 | 51 | |
| 20260504234111 | 52 | 285 | 12.0 | 13.0 | 0.00 | 0.00 | 0.00 | 56 | |
| 20260504233611 | 51 | 285 | 9.0 | 17.0 | 0.00 | 0.00 | 0.00 | 61 | |
| 20260504233111 | 50 | 258 | 15.0 | 20.0 | 0.00 | 0.00 | 0.00 | 63 | |
| 20260504232611 | 50 | 274 | 9.0 | 20.0 | 0.00 | 0.00 | 0.00 | 67 | |
| 20260504232111 | 49 | 286 | 11.0 | 20.0 | 0.00 | 0.00 | 0.00 | 69 | |
| 20260504231611 | 49 | 285 | 20.0 | 20.0 | 0.00 | 0.00 | 0.00 | 69 | |
| 20260504231111 | 49 | 274 | 12.0 | 21.0 | 0.00 | 0.00 | 0.00 | 68 | |
| 20260504230611 | 49 | 289 | 13.0 | 20.0 | 0.00 | 0.00 | 0.00 | 69 | |
| 20260504230111 | 50 | 281 | 16.0 | 29.0 | 0.00 | 0.00 | 0.00 | 68 | |
| 20260504225611 | 53 | 253 | 18.0 | 28.0 | 0.00 | 0.00 | 0.00 | 52 | |
| 20260504225111 | 54 | 277 | 21.0 | 24.0 | 0.00 | 0.00 | 0.00 | 47 | |
| 20260504224611 | 56 | 261 | 9.0 | 13.0 | 0.00 | 0.00 | 0.00 | 45 | |
| 20260504224111 | 56 | 270 | 3.0 | 8.0 | 0.00 | 0.00 | 0.00 | 45 | |
| 20260504223611 | 56 | 275 | 1.0 | 5.0 | 0.00 | 0.00 | 0.00 | 48 | |
| 20260504223111 | 56 | 298 | 0.0 | 2.0 | 0.00 | 0.00 | 0.00 | 48 | |
| 20260504222611 | 56 | 102 | 0.0 | 0.0 | 0.00 | 0.00 | 0.00 | 48 | |
| 20260504222111 | 56 | 102 | 0.0 | 6.0 | 0.00 | 0.00 | 0.00 | 50 | |
| 20260504221611 | 55 | 307 | 4.0 | 8.0 | 0.00 | 0.00 | 0.00 | 52 | |
| 20260504221111 | 54 | 305 | 4.0 | 11.0 | 0.00 | 0.00 | 0.00 | 53 | |
| 20260504220611 | 54 | 312 | 6.0 | 13.0 | 0.00 | 0.00 | 0.00 | 55 | |
| 20260504220111 | 53 | 272 | 8.0 | 14.0 | 0.00 | 0.00 | 0.00 | 59 | |
| 20260504215611 | 52 | 284 | 8.0 | 25.0 | 0.00 | 0.00 | 0.00 | 62 | |
| 20260504215111 | 52 | 268 | 10.0 | 16.0 | 0.00 | 0.00 | 0.00 | 67 | |
| 20260504214611 | 52 | 240 | 13.0 | 18.0 | 0.00 | 0.00 | 0.00 | 62 | |
| 20260504214111 | 52 | 246 | 17.0 | 19.0 | 0.00 | 0.00 | 0.00 | 59 | |
| 20260504213611 | 52 | 246 | 15.0 | 30.0 | 0.00 | 0.00 | 0.00 | 60 | |
| 20260504213111 | 54 | 243 | 19.0 | 27.0 | 0.00 | 0.00 | 0.00 | 54 | |
| 20260504212611 | 55 | 239 | 18.0 | 20.0 | 0.00 | 0.00 | 0.00 | 47 | |
| 20260504212111 | 55 | 251 | 11.0 | 22.0 | 0.00 | 0.00 | 0.00 | 52 | |
| 20260504211611 | 55 | 247 | 19.0 | 21.0 | 0.00 | 0.00 | 0.00 | 49 | |
| 20260504211111 | 55 | 258 | 11.0 | 14.0 | 0.00 | 0.00 | 0.00 | 51 | |
| 20260504210611 | 54 | 288 | 8.0 | 14.0 | 0.00 | 0.00 | 0.00 | 56 | |
| 20260504210111 | 53 | 267 | 9.0 | 19.0 | 0.00 | 0.00 | 0.00 | 57 | |
| 20260504205611 | 53 | 257 | 9.0 | 15.0 | 0.00 | 0.00 | 0.00 | 58 | |
| 20260504205111 | 52 | 251 | 7.0 | 19.0 | 0.00 | 0.00 | 0.00 | 62 | |
| 20260504204611 | 51 | 255 | 15.0 | 22.0 | 0.00 | 0.00 | 0.00 | 62 | |
| 20260504204111 | 51 | 257 | 12.0 | 29.0 | 0.00 | 0.00 | 0.00 | 63 | |
| 20260504203611 | 52 | 250 | 25.0 | 27.0 | 0.00 | 0.00 | 0.00 | 58 | |
| 20260504203111 | 51 | 268 | 12.0 | 31.0 | 0.00 | 0.00 | 0.00 | 62 | |
| 20260504202611 | 51 | 255 | 21.0 | 27.0 | 0.00 | 0.00 | 0.00 | 62 | |
| 20260504202111 | 51 | 247 | 19.0 | 28.0 | 0.00 | 0.00 | 0.00 | 60 | |
| 20260504201611 | 52 | 282 | 12.0 | 32.0 | 0.00 | 0.00 | 0.00 | 58 | |
| 20260504201111 | 54 | 262 | 20.0 | 30.0 | 0.00 | 0.00 | 0.00 | 53 | |
| 20260504200611 | 56 | 250 | 26.0 | 33.0 | 0.00 | 0.00 | 0.00 | 44 | |
| 20260504200111 | 57 | 247 | 33.0 | 33.0 | 0.00 | 0.00 | 0.00 | 39 | |
| 20260504195611 | 60 | 258 | 18.0 | 25.0 | 0.00 | 0.00 | 0.00 | 31 | |
| 20260504195111 | 61 | 257 | 8.0 | 14.0 | 0.00 | 0.00 | 0.00 | 28 | |
| 20260504194611 | 61 | 230 | 10.0 | 17.0 | 0.00 | 0.00 | 0.00 | 29 | |
| 20260504194111 | 62 | 275 | 7.0 | 18.0 | 0.00 | 0.00 | 0.00 | 30 | |
| 20260504193611 | 62 | 251 | 13.0 | 20.0 | 0.00 | 0.00 | 0.00 | 31 | |
| 20260504193111 | 62 | 236 | 14.0 | 17.0 | 0.00 | 0.00 | 0.00 | 29 | |
| 20260504192611 | 62 | 265 | 13.0 | 21.0 | 0.00 | 0.00 | 0.00 | 29 | |
| 20260504192111 | 61 | 250 | 11.0 | 24.0 | 0.00 | 0.00 | 0.00 | 33 | |
| 20260504191611 | 60 | 244 | 19.0 | 22.0 | 0.00 | 0.00 | 0.00 | 33 | |
| 20260504191111 | 58 | 258 | 14.0 | 19.0 | 0.00 | 0.00 | 0.00 | 36 | |
| 20260504190611 | 57 | 262 | 9.0 | 13.0 | 0.00 | 0.00 | 0.00 | 38 | |
| 20260504190111 | 57 | 255 | 6.0 | 18.0 | 0.00 | 0.00 | 0.00 | 40 | |
| 20260504185611 | 57 | 257 | 14.0 | 26.0 | 0.00 | 0.00 | 0.00 | 43 | |
| 20260504185111 | 56 | 258 | 15.0 | 21.0 | 0.00 | 0.00 | 0.00 | 45 | |
| 20260504184611 | 54 | 240 | 17.0 | 23.0 | 0.00 | 0.00 | 0.00 | 49 | |
| 20260504184111 | 52 | 230 | 14.0 | 21.0 | 0.00 | 0.00 | 0.00 | 60 | |
| 20260504183611 | 50 | 244 | 17.0 | 25.0 | 0.00 | 0.00 | 0.00 | 63 | |
| 20260504183111 | 50 | 246 | 19.0 | 27.0 | 0.00 | 0.00 | 0.00 | 63 | |
| 20260504182611 | 50 | 264 | 13.0 | 29.0 | 0.00 | 0.00 | 0.00 | 60 | |
| 20260504182111 | 51 | 226 | 28.0 | 34.0 | 0.00 | 0.00 | 0.00 | 56 | |
| 20260504181611 | 52 | 250 | 23.0 | 31.0 | 0.00 | 0.00 | 0.00 | 51 | |
| 20260504181111 | 54 | 226 | 19.0 | 29.0 | 0.00 | 0.00 | 0.00 | 45 | |
| 20260504180611 | 57 | 225 | 22.0 | 24.0 | 0.00 | 0.00 | 0.00 | 37 | |
| 20260504180111 | 58 | 272 | 8.0 | 18.0 | 0.00 | 0.00 | 0.00 | 35 | |
| 20260504175611 | 58 | 246 | 4.0 | 8.0 | 0.00 | 0.00 | 0.00 | 35 | |
| 20260504175111 | 58 | 258 | 4.0 | 8.0 | 0.00 | 0.00 | 0.00 | 34 | |
| 20260504174611 | 58 | 298 | 6.0 | 10.0 | 0.00 | 0.00 | 0.00 | 36 | |
| 20260504174111 | 57 | 288 | 9.0 | 11.0 | 0.00 | 0.00 | 0.00 | 36 | |
| 20260504173611 | 57 | 251 | 4.0 | 13.0 | 0.00 | 0.00 | 0.00 | 35 | |
| 20260504173111 | 57 | 243 | 0.0 | 7.0 | 0.00 | 0.00 | 0.00 | 36 | |
| 20260504172611 | 57 | 274 | 4.0 | 14.0 | 0.00 | 0.00 | 0.00 | 36 | |
| 20260504172111 | 57 | 246 | 5.0 | 18.0 | 0.00 | 0.00 | 0.00 | 36 | |
| 20260504171611 | 57 | 260 | 12.0 | 15.0 | 0.00 | 0.00 | 0.00 | 37 | |
| 20260504171111 | 57 | 261 | 7.0 | 17.0 | 0.00 | 0.00 | 0.00 | 36 | |
| 20260504170611 | 57 | 250 | 6.0 | 21.0 | 0.00 | 0.00 | 0.00 | 36 | |
| 20260504170111 | 57 | 255 | 17.0 | 21.0 | 0.00 | 0.00 | 0.00 | 36 | |
| 20260504160111 | 56 | 344 | 1.0 | 7.0 | 0.00 | 0.00 | 0.00 | 40 | |
| 20260504151111 | 52 | 331 | 1.0 | 9.0 | 0.00 | 0.00 | 0.00 | 50 | |
| 20260504150612 | 51 | 312 | 4.0 | 8.0 | 0.00 | 0.00 | 0.00 | 52 | |
| 20260504150111 | 50 | 303 | 3.0 | 8.0 | 0.00 | 0.00 | 0.00 | 55 | |
| 20260504141112 | 47 | 286 | 7.0 | 12.0 | 0.00 | 0.00 | 0.00 | 64 | |
| 20260504140612 | 47 | 279 | 11.0 | 22.0 | 0.00 | 0.00 | 0.00 | 60 | |
| 20260504140112 | 48 | 277 | 18.0 | 23.0 | 0.00 | 0.00 | 0.00 | 57 | |
| 20260504130612 | 43 | 323 | 1.0 | 6.0 | 0.00 | 0.00 | 0.00 | 60 | |
| 20260504130112 | 43 | 307 | 2.0 | 8.0 | 0.00 | 0.00 | 0.00 | 59 | |
| 20260504120112 | 41 | 340 | 5.0 | 5.0 | 0.00 | 0.00 | 0.00 | 68 | |
| 20260504110612 | 39 | 292 | 0.0 | 0.0 | 0.00 | 0.00 | 0.00 | 72 | |
| 20260504110112 | 39 | 292 | 0.0 | 0.0 | 0.00 | 0.00 | 0.00 | 73 | |
| 20260504100612 | 38 | 292 | 0.0 | 0.0 | 0.00 | 0.00 | 0.00 | 76 | |
| 20260504100112 | 39 | 292 | 0.0 | 0.0 | 0.00 | 0.00 | 0.00 | 73 | |
| 20260504090112 | 39 | 292 | 0.0 | 0.0 | 0.00 | 0.00 | 0.00 | 73 | |
| 20260504081612 | 39 | 292 | 0.0 | 0.0 | 0.00 | 0.00 | 0.00 | 74 | |
| 20260504081112 | 39 | 292 | 0.0 | 0.0 | 0.00 | 0.00 | 0.00 | 73 | |
| 20260504080612 | 39 | 292 | 0.0 | 0.0 | 0.00 | 0.00 | 0.00 | 72 | |
| 20260504080112 | 38 | 292 | 0.0 | 0.0 | 0.00 | 0.00 | 0.00 | 73 |